Location: Newark
(46.1292°N, 1.0086°W)
Time: 11:53:41
(UTC+00:00)

Vanguard 1 - Visible Passes

Search period start: 17 November 2019 00:00
Search period end: 27 November 2019 00:00
Orbit: 652 x 3831 km, 34.2° (Epoch: 16 November)

Date Brightness Start Highest point End Pass type
(mag) Time Alt. Az. Time Alt. Az. Time Alt. Az.
22 Nov 14.4 06:29:08 10° SSE 06:33:33 12° SSE 06:37:24 10° SE visible
23 Nov 14.2 06:45:53 10° S 06:54:36 17° SSE 07:01:09 10° ESE visible
25 Nov 14.4 05:10:19 10° SSE 05:14:23 11° SE 05:18:03 10° SE visible
26 Nov 14.2 05:25:38 10° S 05:35:23 16° SSE 05:43:03 10° ESE visible
